Regional Weather Roundup
Issued by NWS

Home | Current Version | Previous Version | Graphics & Text | Print | Product List | Glossary On
Versions: 1 2 3 4 5 6 7 8 9 10 11 12 13 14 15 16 17 18 19 20 21 22 23 24 25 26 27
000
ASUS45 KBOU 250007
RWRCO

WEATHER ROUNDUP FOR COLORADO
NATIONAL WEATHER SERVICE DENVER/BOULDER CO
600 PM MDT MON JUL 24 2017

NOTE: "FAIR" INDICATES FEW OR NO CLOUDS BELOW 12000 FEET WITH NO
SIGNIFICANT WEATHER AND/OR OBSTRUCTIONS TO VISIBILITY.

COZ001>005-013-030-031-250100-
...NORTHWEST COLORADO...

CITY           SKY/WX    TMP DP  RH WIND       PRES   REMARKS
CRAIG          FAIR      87  37  17 W12       30.08S
HAYDEN         FAIR     N/A N/A N/A CALM      30.11S
MEEKER         FAIR      87  41  19 W5        30.10F
RABBIT EARS PA FAIR      68  39  34 W5        30.48F
STEAMBOAT SPGS FAIR      84  37  18 NW6       30.14F
WALDEN         FAIR      77  32  19 CALM      30.27F
$$

COZ006>008-011-250100-
...WEST CENTRAL VALLEYS...

CITY           SKY/WX    TMP DP  RH WIND       PRES   REMARKS
GRAND JUNCTION FAIR      91  51  25 W6        29.95F
MONTROSE       FAIR      85  51  31 S12       30.07R
EAGLE          MOSUNNY   88  43  20 NW9       30.11F
RIFLE          FAIR      92  39  15 W6        30.00F
DELTA          FAIR      95  41  15 SE3       30.00S
NUCLA          FAIR      82  46  28 S12G18    30.13S
$$

COZ017>023-064>068-250100-
...SOUTHWEST COLORADO...

CITY           SKY/WX    TMP DP  RH WIND       PRES   REMARKS
DURANGO        FAIR      83  46  27 N7        30.15F
CORTEZ         PTSUNNY   87  47  24 S5        30.09S
PAGOSA SPRINGS FAIR      74  46  36 E7        30.29F
TELLURIDE      CLOUDY    66  50  57 SE5       30.40S
WOLF CREEK PAS CLOUDY    52  41  66 SE5       30.66F
$$

COZ009-010-012-014-032>034-037-058>063-250100-
...CENTRAL COLORADO...

CITY           SKY/WX    TMP DP  RH WIND       PRES   REMARKS
ASPEN          PTSUNNY   80  41  24 S20       30.23R
BUENA VISTA    FAIR      74  37  25 W12       30.27S
COPPER MTN     CLOUDY    59  37  44 S17       30.62S
BERTHOUD PASS  FAIR      50  36  57 SE6G23    30.68S
COTTONWOOD PAS PTSUNNY   68  34  28 NW7       30.44S
GUNNISON       FAIR      75  47  36 NE14      30.26R
KREMMLING      FAIR      91  30  11 S3        30.20F
LEADVILLE      CLOUDY    66  35  31 SE9       30.40S
MONARCH PASS   FAIR      59  36  41 W3        30.72S
SALIDA         FAIR      83  39  21 E6        30.29S
SUNLIGHT       FAIR      66  32  28 CALM      30.52F
WILKERSON PASS CLOUDY    59  39  47 S9        30.59S
$$

COZ069>075-250100-
...SAN LUIS VALLEY/SANGRE DE CRISTO MOUNTAINS...

CITY           SKY/WX    TMP DP  RH WIND       PRES   REMARKS
ALAMOSA        FAIR      75  47  36 W8        30.24S
DEL NORTE      FAIR      73  49  41 SW9       30.29F
LA VETA PASS   NOT AVBL
SAGUACHE         N/A    N/A N/A N/A MISG        N/A
$$

COZ035-036-038>040-250100-
...NORTHERN COLORADO FRONT RANGE...

CITY           SKY/WX    TMP DP  RH WIND       PRES   REMARKS
DENVER INTL AP PTSUNNY   93  42  17 S16       30.01S
DMNS CITY PARK   N/A     91  40  17 S7        30.01R
AURORA         PTSUNNY   90  44  20 S17       30.04S
FRONT RANGE AP FAIR      91  36  14 SE13      30.03F
ERIE MUNI ARPT FAIR      90  35  14 N3        29.99F
BOULDER MUN AP FAIR      91  37  15 W3        30.01F
CENTENNIAL     PTSUNNY   87  41  19 SE13      30.06S
BROOMFIELD     FAIR      90  37  15 NW8       30.05F
FORT COLLINS   FAIR      95  40  14 NW7       29.99F
LONGMONT       FAIR      95  40  14 NW5       30.00F
$$

COZ041-046-047-076>085-087-088-250100-
...PIKES PEAK/PALMER DIVIDE AND SOUTHERN FOOTHILLS...

CITY           SKY/WX    TMP DP  RH WIND       PRES   REMARKS
COLO. SPRINGS  PTSUNNY   83  52  34 NE6       30.14R
A. F. ACADEMY  PTSUNNY   80  47  31 SW8       30.15S
SCHRIEVER AFB  PTSUNNY   80  48  31 NE5       30.14S
CHEYENNE MTN   LGT RAIN  78  40  26 W15G23    30.16R
ELLICOTT       NOT AVBL
FALCON           N/A     77  51  39 S6        30.21S
FORT CARSON    FAIR      81  53  38 NW10      30.10R
LIMON          FAIR      88  45  22 S14       30.05F
MONUMENT HILL  FAIR      77  46  33 S9        30.21S
CANON CITY     MOSUNNY   91  50  24 MISG      30.04S
WALSENBURG     FAIR      82  48  30 SW12      30.11R
TRINIDAD       FAIR      91  37  15 SE10      30.07F
$$

COZ042>045-048>051-090-091-250100-
...NORTHEAST COLORADO...

CITY           SKY/WX    TMP DP  RH WIND       PRES   REMARKS
GREELEY ARPT   FAIR      92  50  23 N9        29.97S
AKRON          FAIR      94  46  19 S17       29.97S
BURLINGTON     FAIR      92  55  28 S16       29.99F
WRAY           NOT AVBL
YUMA           NOT AVBL
STERLING       FAIR      91  48  22 S5        29.89S
HOLYOKE        FAIR      95  52  23 S15G21    29.92S
FORT MORGAN    FAIR      96  39  14 S15       29.94S
$$

COZ086-089-092>099-250100-
...SOUTHEAST COLORADO...

CITY           SKY/WX    TMP DP  RH WIND       PRES   REMARKS
PUEBLO         FAIR      96  44  16 E15       29.97S
LA JUNTA       FAIR      96  55  25 SE16      29.95F
LAMAR          FAIR      94  56  27 S16       29.93F
SPRINGFIELD      N/A     89  56  32 SE18      30.01S
$$




USA.gov is the U.S. government's official web portal to all federal, state and local government web resources and services.